When you browse on this site, cookies collect data to enhance your experience and personalize the content and advertising you see.
Visit our Privacy Policy to learn more. By continuing to use the site, you agree to this use of cookies and data.
  • In Latvia
  • List of Countries
  • For 7 days
  • Water Temperature
  • Weather Map
  • Weather Widgets
  • user-avatar
    Login

    Hourly Weather Matanzas

    Today, 29 January, Wednesday

    Time Temperature Precipitation Wind Pressure Humidity
    00:00 +22°C° 0.1 mm 1 mps 755 mmHg 91%
    01:00 +22°C° 0 mm 1 mps 755 mmHg 92%
    02:00 +22°C° 0.1 mm 1 mps 755 mmHg 92%
    03:00 +22°C° 0.1 mm 1 mps 755 mmHg 92%
    04:00 +21°C° 0.1 mm 2 mps 754 mmHg 92%
    05:00 +21°C° 0.1 mm 2 mps 755 mmHg 92%
    06:00 +21°C° 0.1 mm 2 mps 755 mmHg 92%
    07:00 +22°C° 0.1 mm 1 mps 755 mmHg 93%
    08:00 +23°C° 0 mm 1 mps 756 mmHg 87%
    09:00 +25°C° 0 mm 1 mps 756 mmHg 81%
    10:00 +26°C° 0 mm 1 mps 756 mmHg 75%
    11:00 +28°C° 0 mm 1 mps 756 mmHg 70%
    12:00 +29°C° 0 mm 1 mps 756 mmHg 64%
    13:00 +30°C° 0 mm 1 mps 755 mmHg 58%
    14:00 +30°C° 0 mm 2 mps 755 mmHg 57%
    15:00 +30°C° 0 mm 2 mps 754 mmHg 57%
    16:00 +30°C° 0 mm 3 mps 754 mmHg 56%
    17:00 +28°C° 0 mm 2 mps 754 mmHg 66%
    18:00 +26°C° 0 mm 2 mps 754 mmHg 75%
    19:00 +24°C° 0 mm 2 mps 754 mmHg 84%
    20:00 +23°C° 0 mm 2 mps 755 mmHg 87%
    21:00 +22°C° 0 mm 3 mps 755 mmHg 90%
    22:00 +22°C° 0 mm 3 mps 755 mmHg 93%
    23:00 +21°C° 0.4 mm 3 mps 755 mmHg 94%

    Tomorrow, 30 January, Thursday

    Time Temperature Precipitation Wind Pressure Humidity
    00:00 +21°C° 0.4 mm 3 mps 755 mmHg 94%
    01:00 +21°C° 0.4 mm 3 mps 755 mmHg 95%
    02:00 +21°C° 0.2 mm 3 mps 755 mmHg 95%
    03:00 +21°C° 0.2 mm 3 mps 754 mmHg 95%
    04:00 +21°C° 0.2 mm 3 mps 754 mmHg 95%
    05:00 +21°C° 0 mm 3 mps 754 mmHg 95%
    06:00 +21°C° 0 mm 3 mps 755 mmHg 95%
    07:00 +21°C° 0 mm 2 mps 755 mmHg 95%
    08:00 +24°C° 0 mm 3 mps 755 mmHg 87%
    09:00 +26°C° 0 mm 3 mps 756 mmHg 80%
    10:00 +28°C° 0 mm 3 mps 756 mmHg 72%
    11:00 +29°C° 0 mm 3 mps 756 mmHg 66%
    12:00 +29°C° 0 mm 3 mps 756 mmHg 61%
    13:00 +30°C° 0 mm 3 mps 756 mmHg 55%
    14:00 +30°C° 0.4 mm 3 mps 755 mmHg 60%
    15:00 +29°C° 0.4 mm 4 mps 755 mmHg 64%
    16:00 +28°C° 0.4 mm 4 mps 755 mmHg 69%
    17:00 +27°C° 0.2 mm 4 mps 755 mmHg 76%
    18:00 +25°C° 0.2 mm 3 mps 755 mmHg 83%
    19:00 +24°C° 0.2 mm 3 mps 756 mmHg 90%
    20:00 +24°C° 0 mm 2 mps 756 mmHg 91%
    21:00 +23°C° 0 mm 2 mps 756 mmHg 92%
    22:00 +23°C° 0 mm 2 mps 756 mmHg 94%
    23:00 +23°C° 0.1 mm 2 mps 756 mmHg 94%

    Day after tomorrow, 31 January, Friday

    Time Temperature Precipitation Wind Pressure Humidity
    00:00 +23°C° 0.1 mm 2 mps 756 mmHg 94%
    01:00 +23°C° 0.1 mm 2 mps 756 mmHg 94%
    02:00 +22°C° 0 mm 1 mps 756 mmHg 93%
    03:00 +22°C° 0 mm 1 mps 756 mmHg 93%
    04:00 +22°C° 0 mm 1 mps 755 mmHg 93%
    05:00 +22°C° 0 mm 1 mps 756 mmHg 93%
    06:00 +22°C° 0 mm 1 mps 756 mmHg 92%
    07:00 +21°C° 0 mm 2 mps 756 mmHg 92%
    08:00 +23°C° 0 mm 2 mps 757 mmHg 86%
    09:00 +25°C° 0 mm 3 mps 757 mmHg 79%
    10:00 +27°C° 0 mm 3 mps 758 mmHg 73%
    11:00 +28°C° 0 mm 4 mps 757 mmHg 67%
    12:00 +29°C° 0 mm 4 mps 757 mmHg 60%
    13:00 +32°C° 0 mm 4 mps 757 mmHg 54%
    14:00 +32°C° 0 mm 4 mps 756 mmHg 54%
    15:00 +30°C° 0 mm 4 mps 755 mmHg 54%
    16:00 +30°C° 0 mm 5 mps 755 mmHg 54%
    17:00 +28°C° 0 mm 4 mps 755 mmHg 63%
    18:00 +26°C° 0 mm 4 mps 756 mmHg 71%
    19:00 +25°C° 0 mm 4 mps 756 mmHg 80%
    20:00 +23°C° 0 mm 4 mps 756 mmHg 84%
    21:00 +24°C° 0 mm 3 mps 757 mmHg 89%
    22:00 +22°C° 0 mm 3 mps 757 mmHg 93%
    23:00 +22°C° 0 mm 3 mps 757 mmHg 93%

    1 February, Saturday

    Time Temperature Precipitation Wind Pressure Humidity
    00:00 +23°C° 0 mm 2 mps 757 mmHg 94%
    01:00 +23°C° 0 mm 1 mps 757 mmHg 94%
    02:00 +23°C° 0 mm 1 mps 757 mmHg 94%
    03:00 +23°C° 0 mm 2 mps 756 mmHg 94%
    04:00 +23°C° 0 mm 2 mps 756 mmHg 94%
    05:00 +21°C° 0 mm 2 mps 756 mmHg 95%
    06:00 +21°C° 0 mm 3 mps 756 mmHg 95%
    07:00 +21°C° 0 mm 3 mps 757 mmHg 96%
    08:00 +23°C° 0 mm 4 mps 757 mmHg 88%
    09:00 +26°C° 0 mm 4 mps 757 mmHg 79%
    10:00 +28°C° 0 mm 5 mps 758 mmHg 71%
    11:00 +29°C° 0 mm 5 mps 757 mmHg 66%
    12:00 +30°C° 0 mm 5 mps 757 mmHg 62%
    13:00 +32°C° 0 mm 5 mps 757 mmHg 57%
    14:00 +32°C° 0.1 mm 6 mps 756 mmHg 59%
    15:00 +30°C° 0.1 mm 6 mps 756 mmHg 60%
    16:00 +30°C° 0.1 mm 6 mps 756 mmHg 61%
    17:00 +28°C° 0.6 mm 5 mps 756 mmHg 70%
    18:00 +26°C° 0.6 mm 5 mps 756 mmHg 79%
    19:00 +25°C° 0.6 mm 4 mps 756 mmHg 88%
    20:00 +23°C° 0.4 mm 5 mps 757 mmHg 90%
    21:00 +23°C° 0.4 mm 5 mps 757 mmHg 92%
    22:00 +23°C° 0.4 mm 6 mps 758 mmHg 93%
    23:00 +22°C° 0.3 mm 6 mps 758 mmHg 91%

    2 February, Sunday

    Time Temperature Precipitation Wind Pressure Humidity
    00:00 +22°C° 0.3 mm 6 mps 757 mmHg 89%
    01:00 +22°C° 0.3 mm 7 mps 757 mmHg 86%
    02:00 +22°C° 0.1 mm 7 mps 757 mmHg 85%
    03:00 +21°C° 0.1 mm 8 mps 757 mmHg 83%
    04:00 +21°C° 0.1 mm 9 mps 757 mmHg 82%
    05:00 +20°C° 0 mm 8 mps 758 mmHg 80%
    06:00 +20°C° 0 mm 8 mps 758 mmHg 78%
    07:00 +18°C° 0 mm 8 mps 758 mmHg 77%
    08:00 +20°C° 0 mm 8 mps 759 mmHg 72%
    09:00 +20°C° 0 mm 8 mps 759 mmHg 68%
    10:00 +21°C° 0 mm 8 mps 760 mmHg 63%
    11:00 +21°C° 0 mm 8 mps 760 mmHg 62%
    12:00 +21°C° 0 mm 8 mps 759 mmHg 61%
    13:00 +22°C° 0 mm 8 mps 759 mmHg 60%
    14:00 +21°C° 0 mm 8 mps 759 mmHg 59%
    15:00 +21°C° 0 mm 7 mps 758 mmHg 59%
    16:00 +21°C° 0 mm 7 mps 758 mmHg 58%
    17:00 +20°C° 0 mm 6 mps 758 mmHg 60%
    18:00 +19°C° 0 mm 5 mps 759 mmHg 62%
    19:00 +16°C° 0 mm 5 mps 759 mmHg 63%
    20:00 +16°C° 0 mm 5 mps 759 mmHg 64%
    21:00 +17°C° 0 mm 4 mps 760 mmHg 65%
    22:00 +17°C° 0 mm 4 mps 760 mmHg 65%
    23:00 +17°C° 0 mm 4 mps 760 mmHg 66%

    3 February, Monday

    Time Temperature Precipitation Wind Pressure Humidity
    00:00 +17°C° 0 mm 4 mps 759 mmHg 67%
    01:00 +17°C° 0 mm 3 mps 759 mmHg 68%
    02:00 +16°C° 0 mm 3 mps 759 mmHg 71%
    03:00 +16°C° 0 mm 3 mps 758 mmHg 73%
    04:00 +16°C° 0 mm 3 mps 758 mmHg 75%
    05:00 +14°C° 0 mm 3 mps 758 mmHg 78%
    06:00 +14°C° 0 mm 3 mps 759 mmHg 81%
    07:00 +14°C° 0 mm 3 mps 759 mmHg 84%
    08:00 +17°C° 0 mm 4 mps 759 mmHg 77%
    09:00 +20°C° 0 mm 4 mps 760 mmHg 69%
    10:00 +22°C° 0 mm 5 mps 760 mmHg 62%
    11:00 +23°C° 0 mm 5 mps 760 mmHg 58%
    12:00 +25°C° 0 mm 5 mps 759 mmHg 55%
    13:00 +26°C° 0 mm 5 mps 759 mmHg 52%
    14:00 +26°C° 0 mm 5 mps 759 mmHg 54%
    15:00 +26°C° 0 mm 5 mps 758 mmHg 56%
    16:00 +26°C° 0 mm 6 mps 758 mmHg 58%
    17:00 +23°C° 0 mm 5 mps 758 mmHg 64%
    18:00 +22°C° 0 mm 5 mps 758 mmHg 70%
    19:00 +20°C° 0 mm 5 mps 759 mmHg 76%
    20:00 +20°C° 0 mm 5 mps 759 mmHg 78%
    21:00 +19°C° 0 mm 4 mps 759 mmHg 80%
    22:00 +19°C° 0 mm 4 mps 759 mmHg 82%
    23:00 +19°C° 0 mm 4 mps 759 mmHg 84%
    Show more